Regional Weather Roundup
Issued by NWS

Home | Current Version | Previous Version | Text Only | Print | Product List | Glossary Off
Versions: 1 2 3 4 5 6 7 8 9 10 11 12 13 14 15 16 17 18 19 20 21 22 23 24 25 26 27 28 29 30 31 32 33 34 35 36 37 38 39 40 41 42 43 44 45 46 47 48 49 50

000
ASUS44 KMEG 231410
RWRTN
TENNESSEE HOURLY STATE WEATHER ROUNDUP
NATIONAL WEATHER SERVICE MEMPHIS TN
800 AM CST SUN NOV 23 2014

TNZ002-004-019-021-049-052-054-088>092-231500-
WEST TENNESSEE

CITY           SKY/WX    TMP DP  RH WIND       PRES   REMARKS
MEMPHIS INTL   CLOUDY    60  55  83 SE12      29.72F
NWS MEMPHIS      N/A     58 N/A N/A MISG        N/A
JACKSON        CLOUDY    56  54  93 VRB6      29.77F FOG
DYERSBURG      CLOUDY    57  45  62 SE8       29.76F
UNION CITY     CLOUDY    55  52  88 SE13      29.75F
PARIS          CLOUDY    54  46  76 SE9       29.80F
HUNTINGDON     CLOUDY    54  49  83 SE8       29.80F
LEXINGTON      CLOUDY    57  52  82 SE10      29.79F
SAVANNAH       CLOUDY    55  55 100 SE9       29.80F
$$

TNZ008-025-027-028-033-062-065-066-231500-
NORTH MIDDLE TENNESSEE

CITY           SKY/WX    TMP DP  RH WIND       PRES   REMARKS
NASHVILLE      CLOUDY    57  48  72 SE9       29.87F
CLARKSVILLE    CLOUDY    56  45  66 SE13      29.83F
SMYRNA         CLOUDY    59  50  72 SE13G21   29.88F
COOKEVILLE     MOSUNNY   55  48  76 S8        29.91F
CROSSVILLE     CLOUDY    55  46  71 SE13      29.96F
$$

TNZ061-075-076-078-094-096-097-231500-
SOUTH MIDDLE TENNESSEE

CITY           SKY/WX    TMP DP  RH WIND       PRES   REMARKS
FAYETTEVILLE   CLOUDY    54  52  94 N15       29.88F
TULLAHOMA      CLOUDY    54  48  82 SE12      29.90F
WINCHESTER     CLOUDY    54  52  94 SE13      29.90F
MCMINNVILLE    CLOUDY    57  55  94 CALM      29.91F
SHELBYVILLE    CLOUDY    55  52  88 SE14      29.88F
$$

TNZ017-018-042-046-047-231500-
NORTHEAST TENNESSEE

CITY           SKY/WX    TMP DP  RH WIND       PRES   REMARKS
TRI CITIES     CLOUDY    41  35  79 CALM      30.09F
ELIZABETHTON   PTSUNNY   54  45  71 E10       30.08F
$$

TNZ012-013-036-069-073-074-231500-
CENTRAL EAST TENNESSEE

CITY           SKY/WX    TMP DP  RH WIND       PRES   REMARKS
KNOXVILLE      PTSUNNY   47  34  60 N3        30.01F
OAK RIDGE      CLOUDY    47  38  71 CALM      30.02F
GATLINBURG     MOSUNNY   41  34  75 CALM      30.01F
MORRISTOWN     MOSUNNY   46  39  76 E9        30.02F
$$

TNZ083-085-099-231500-
SOUTHEAST TENNESSEE

CITY           SKY/WX    TMP DP  RH WIND       PRES   REMARKS
CHATTANOOGA    CLOUDY    50  48  93 NE3       29.98F FOG
$$

SKY/WX REPORTED AS FAIR MEANS FEW OR NO CLOUDS BELOW
12 THOUSAND FEET.



USA.gov is the U.S. government's official web portal to all federal, state and local government web resources and services.